User: anonymous   Login
Location: Unspecified
(0.0000°N, 0.0000°E)
Time: 19:41:11
(UTC+00:00)
Language:

Courier 1B - Orbit

View from above orbital plane
View from above orbital plane
View from above satellite
View from above satellite

Ground track
Ground track

The orbit data is extracted from the following two-line orbital elements,

1    58U 60013A   16148.90373889 +.00000094 +00000-0 +18347-4 0  9990
2    58 028.3283 050.8143 0164932 043.5588 317.7853 13.46302317738811
Epoch (UTC): 27 May 2016 21:41:23
Eccentricity: 0.0164932
inclination: 28.3283°
perigee height: 963 km
apogee height: 1209 km
right ascension of ascending node: 50.8143°
argument of perigee: 43.5588°
revolutions per day: 13.46302317
mean anomaly at epoch: 317.7853°
orbit number at epoch: 73881

The dashed part of the orbit path shows where the satellite is in the earth's shadow,  

DLR